Weather in Troitskoye

Russia / Primorsky Krai     44°49′27″N   132°02′17″E
temp.,
°C
wind,
m/s
gust,
m/s
humid.,
%
clouds,
%
prec.,
mm/h
press.,
hPa
HPBL,
m
14 april, wed
wed1401:00−1wnw48430 0.0 1012515
04:00−1w48435 0.0 1011332
07:00−2sw3745100 0.0 1011282
10:00+3wsw382935 0.0 10101851
13:00+6w5828100 0.0 10092500
16:00+7w61026100 0.0 10072626
19:00+7wnw41028100 0.0 10081998
22:00+5nw2237100 0.0 101121
15 april, thu
thu1501:00+2w11435 0.0 101210
04:00+1sw2246100 0.0 101317
07:00+1ssw3346100 0.0 101341
10:00+6ssw58335 0.0 1013441
13:00+12s582450 0.0 10111354
16:00+14s9112512 0.0 10091251
19:00+11s10173990 0.0 1010457
22:00+8ssw71447100 0.0 1012476
16 april, fri
fri1601:00+7ssw81655100 0.0 1011557
04:00+6s817745 0.0 1011651
07:00+7s91683100 0.0 1009850
10:00+8sse81774100 0.0 10081171
13:00+9sse81764100 0.1 10051368
16:00+9sse81669100 0.3 10021383
19:00+9sse9156846 0.3 10011083
22:00+7sse7127799 0.4 10011010
17 april, sat
sat1701:00+5s4890100 1.3 1000732
04:00+6s51186100 1.7 1000416
07:00+4ssw4884100 0.0 1001250
10:00+7ssw4557100 0.0 1003782
13:00+10ssw4543100 0.0 10031414
16:00+10sw1340100 0.0 10021708
19:00+7nw687496 0.2 1005706
22:00+6nnw5979100 0.5 1007656
18 april, sun
sun1801:00+6wnw3877100 0.0 1008631
04:00+5nw4990100 2.7 1008925
07:00+5nnw3888100 0.5 1010738
10:00+5nnw4989100 1.1 1012746
13:00+8n4867100 0.3 10111153
16:00+8n156698 0.4 1010770
19:00+9ese016074 0.1 100914
22:00+7sw33684 0.1 101024